| time (UTC) | temp F | wind direction | speed knots | gust knots | rain 1hr in | rain 24hr in | rain mn in | humidity % | barometer mb |
| 20260504050010 | 62 | 69 | 0.0 | 3.5 | 0.00 | 0.00 | 0.00 | 65 | 1010.3 |
| 20260504044509 | 63 | 294 | 0.9 | 7.0 | 0.00 | 0.00 | 0.00 | 59 | 1010.3 |
| 20260504043038 | 64 | 315 | 0.0 | 7.0 | 0.00 | 0.00 | 0.00 | 60 | 1010.2 |
| 20260504041638 | 64 | 345 | 0.9 | 7.8 | 0.00 | 0.00 | 0.00 | 58 | 1010.3 |
| 20260504040034 | 64 | 37 | 0.9 | 4.3 | 0.00 | 0.00 | 0.00 | 59 | 1010.4 |
| 20260504034541 | 63 | 351 | 0.9 | 5.2 | 0.00 | 0.00 | 0.00 | 61 | 1010.5 |
| 20260504033032 | 64 | 304 | 0.0 | 4.3 | 0.00 | 0.00 | 0.00 | 65 | 1010.5 |
| 20260504031527 | 63 | 192 | 0.0 | 4.3 | 0.00 | 0.00 | 0.00 | 63 | 1010.6 |
| 20260504030034 | 63 | 278 | 0.0 | 3.5 | 0.00 | 0.00 | 0.00 | 67 | 1010.8 |
| 20260504024520 | 62 | 313 | 2.6 | 8.7 | 0.00 | 0.00 | 0.00 | 64 | 1010.8 |
| 20260504023017 | 63 | 204 | 0.9 | 3.5 | 0.00 | 0.00 | 0.00 | 69 | 1011.0 |
| 20260504021514 | 62 | 17 | 0.9 | 5.2 | 0.00 | 0.00 | 0.00 | 70 | 1011.3 |
| 20260504020114 | 62 | 341 | 0.0 | 7.0 | 0.00 | 0.00 | 0.00 | 68 | 1011.7 |
| 20260504014543 | 62 | 305 | 0.9 | 7.0 | 0.00 | 0.00 | 0.00 | 69 | 1011.9 |
| 20260504013039 | 61 | 310 | 1.7 | 6.1 | 0.00 | 0.00 | 0.00 | 69 | 1012.1 |
| 20260504011533 | 61 | 288 | 0.0 | 6.1 | 0.00 | 0.00 | 0.00 | 72 | 1012.2 |
| 20260504010031 | 60 | 160 | 1.7 | 6.1 | 0.00 | 0.00 | 0.00 | 73 | 1012.3 |
| 20260504004529 | 59 | 34 | 0.0 | 0.9 | 0.00 | 0.00 | 0.00 | 81 | 1012.1 |
| 20260504003025 | 58 | 36 | 0.0 | 5.2 | 0.00 | 0.00 | 0.00 | 82 | 1012.1 |
| 20260504001607 | 56 | 359 | 1.7 | 7.8 | 0.00 | 0.00 | 0.00 | 82 | 1012.0 |
| 20260504000051 | 56 | 54 | 0.0 | 1.7 | 0.00 | 0.00 | 0.00 | 85 | 1012.0 |
| 20260503234543 | 54 | 48 | 0.0 | 0.0 | 0.00 | 0.00 | 0.00 | 80 | 1012.3 |
| 20260503233039 | 53 | 303 | 0.0 | 0.9 | 0.00 | 0.00 | 0.00 | 81 | 1012.4 |
| 20260503231546 | 51 | 230 | 0.0 | 2.6 | 0.00 | 0.00 | 0.00 | 82 | 1012.3 |
| 20260503230036 | 50 | 342 | 0.0 | 0.9 | 0.00 | 0.00 | 0.00 | 82 | 1012.3 |
| 20260503224532 | 50 | 110 | 0.0 | 3.5 | 0.00 | 0.00 | 0.00 | 82 | 1012.5 |
| 20260503223029 | 49 | 79 | 0.0 | 1.7 | 0.00 | 0.00 | 0.00 | 82 | 1012.3 |
| 20260503221527 | 50 | 113 | 0.0 | 1.7 | 0.00 | 0.00 | 0.00 | 82 | 1012.6 |
| 20260503220035 | 49 | 177 | 0.0 | 0.9 | 0.00 | 0.00 | 0.00 | 82 | 1012.7 |
| 20260503214524 | 0 | 0.0 | 0.0 | 0.00 | 0.00 | 0.00 | 1012.7 | ||
| 20260503213024 | 0 | 0.0 | 0.0 | 0.00 | 0.00 | 0.00 | 1012.8 | ||
| 20260503211519 | 0 | 0.0 | 0.0 | 0.00 | 0.00 | 0.00 | 1012.7 | ||
| 20260503210016 | 0 | 0.0 | 0.0 | 0.00 | 0.00 | 0.00 | 1012.7 | ||
| 20260503204502 | 0 | 0.0 | 0.0 | 0.00 | 0.00 | 0.00 | 1012.7 | ||
| 20260503203114 | 0 | 0.0 | 0.0 | 0.00 | 0.00 | 0.00 | 1012.4 | ||
| 20260503201554 | 0 | 0.0 | 0.0 | 0.00 | 0.00 | 0.00 | 1012.3 | ||
| 20260503200051 | 0 | 0.0 | 0.0 | 0.00 | 0.00 | 0.00 | 1012.4 | ||
| 20260503194521 | 0 | 0.0 | 0.0 | 0.00 | 0.00 | 0.00 | 1012.3 | ||
| 20260503193011 | 0 | 0.0 | 0.0 | 0.00 | 0.00 | 0.00 | 1012.3 | ||
| 20260503191506 | 0 | 0.0 | 0.0 | 0.00 | 0.00 | 0.00 | 1012.6 | ||
| 20260503190101 | 0 | 0.0 | 0.0 | 0.00 | 0.00 | 0.00 | 1012.7 | ||
| 20260503184621 | 0 | 0.0 | 0.0 | 0.00 | 0.00 | 0.00 | 1012.9 | ||
| 20260503183054 | 0 | 0.0 | 0.0 | 0.00 | 0.00 | 0.00 | 1013.0 | ||
| 20260503181517 | 0 | 0.0 | 0.0 | 0.00 | 0.00 | 0.00 | 1013.0 | ||
| 20260503180025 | 0 | 0.0 | 0.0 | 0.00 | 0.00 | 0.00 | 1013.2 | ||
| 20260503174517 | 0 | 0.0 | 0.0 | 0.00 | 0.00 | 0.00 | 1013.1 | ||
| 20260503173001 | 0 | 0.0 | 0.0 | 0.00 | 0.00 | 0.00 | 1012.9 | ||
| 20260503171557 | 0 | 0.0 | 0.0 | 0.00 | 0.00 | 0.00 | 1012.9 | ||
| 20260503081536 | 59 | 48 | 0.0 | 0.0 | 0.00 | 0.00 | 0.00 | 80 | 1012.1 |
| 20260503071607 | 59 | 301 | 0.0 | 1.7 | 0.00 | 0.00 | 0.00 | 80 | 1011.6 |
| 20260503054553 | 62 | 34 | 0.0 | 1.7 | 0.00 | 0.00 | 0.00 | 79 | 1010.6 |
| 20260503053039 | 62 | 97 | 0.0 | 0.9 | 0.00 | 0.00 | 0.00 | 79 | 1010.5 |